EN

Hourly Weather Lae

Today, 28 July, Wednesday

Time Temperature Precipitation Wind Pressure Humidity
00:00 +27°C° 0 mm 1 mps 762 mmHg 82%
01:00 +26°C° 0 mm 1 mps 762 mmHg 83%
02:00 +26°C° 0 mm 2 mps 762 mmHg 82%
03:00 +26°C° 0 mm 2 mps 761 mmHg 82%
04:00 +26°C° 0 mm 2 mps 761 mmHg 82%
05:00 +26°C° 0 mm 2 mps 761 mmHg 82%
06:00 +26°C° 0 mm 2 mps 762 mmHg 81%
07:00 +26°C° 0 mm 2 mps 762 mmHg 81%
08:00 +28°C° 0 mm 2 mps 762 mmHg 75%
09:00 +30°C° 0 mm 2 mps 762 mmHg 70%
10:00 +32°C° 0 mm 1 mps 762 mmHg 65%
11:00 +32°C° 0.2 mm 2 mps 762 mmHg 66%
12:00 +32°C° 0.2 mm 2 mps 761 mmHg 67%
13:00 +33°C° 0.2 mm 3 mps 760 mmHg 68%
14:00 +33°C° 0.3 mm 3 mps 760 mmHg 70%
15:00 +31°C° 0.3 mm 3 mps 760 mmHg 73%
16:00 +31°C° 0 mm 3 mps 759 mmHg 76%
17:00 +30°C° 0.7 mm 2 mps 760 mmHg 81%
18:00 +29°C° 0.7 mm 2 mps 761 mmHg 86%
19:00 +28°C° 0.7 mm 2 mps 761 mmHg 91%
20:00 +28°C° 0.6 mm 2 mps 762 mmHg 92%
21:00 +27°C° 0.6 mm 1 mps 762 mmHg 92%
22:00 +27°C° 0 mm 1 mps 763 mmHg 92%
23:00 +27°C° 0.3 mm 1 mps 763 mmHg 91%

Tomorrow, 29 July, Thursday

Time Temperature Precipitation Wind Pressure Humidity
00:00 +27°C° 0.3 mm 1 mps 762 mmHg 91%
01:00 +25°C° 0.3 mm 0 mps 762 mmHg 91%
02:00 +27°C° 0 mm 1 mps 762 mmHg 91%
03:00 +27°C° 0 mm 1 mps 761 mmHg 91%
04:00 +26°C° 0 mm 2 mps 761 mmHg 91%
05:00 +26°C° 0 mm 2 mps 761 mmHg 90%
06:00 +27°C° 0 mm 2 mps 762 mmHg 89%
07:00 +27°C° 0 mm 2 mps 762 mmHg 89%
08:00 +28°C° 0 mm 2 mps 762 mmHg 83%
09:00 +30°C° 0 mm 1 mps 762 mmHg 76%
10:00 +31°C° 0 mm 1 mps 762 mmHg 70%
11:00 +32°C° 0.2 mm 2 mps 761 mmHg 70%
12:00 +32°C° 0.2 mm 2 mps 761 mmHg 71%
13:00 +32°C° 0.2 mm 2 mps 760 mmHg 71%
14:00 +31°C° 0.8 mm 2 mps 760 mmHg 73%
15:00 +31°C° 0.8 mm 2 mps 760 mmHg 74%
16:00 +31°C° 0.8 mm 2 mps 760 mmHg 75%
17:00 +30°C° 0.4 mm 2 mps 760 mmHg 80%
18:00 +29°C° 0.4 mm 2 mps 761 mmHg 85%
19:00 +28°C° 0.4 mm 2 mps 761 mmHg 90%
20:00 +28°C° 0.2 mm 1 mps 762 mmHg 90%
21:00 +28°C° 0.2 mm 1 mps 762 mmHg 89%
22:00 +27°C° 0.2 mm 1 mps 763 mmHg 89%
23:00 +27°C° 0.1 mm 1 mps 762 mmHg 88%

Day after tomorrow, 30 July, Friday

Time Temperature Precipitation Wind Pressure Humidity
00:00 +27°C° 0.1 mm 1 mps 762 mmHg 88%
01:00 +27°C° 0.1 mm 1 mps 762 mmHg 87%
02:00 +27°C° 0.1 mm 1 mps 761 mmHg 87%
03:00 +27°C° 0.1 mm 1 mps 761 mmHg 87%
04:00 +27°C° 0.1 mm 1 mps 761 mmHg 88%
05:00 +27°C° 0 mm 1 mps 761 mmHg 87%
06:00 +27°C° 0 mm 1 mps 762 mmHg 86%
07:00 +27°C° 0 mm 1 mps 762 mmHg 86%
08:00 +29°C° 0 mm 1 mps 762 mmHg 79%
09:00 +30°C° 0 mm 1 mps 762 mmHg 73%
10:00 +32°C° 0 mm 1 mps 763 mmHg 67%
11:00 +32°C° 0.2 mm 1 mps 762 mmHg 67%
12:00 +32°C° 0.2 mm 2 mps 761 mmHg 67%
13:00 +34°C° 0.2 mm 2 mps 760 mmHg 67%
14:00 +33°C° 0.3 mm 3 mps 760 mmHg 69%
15:00 +33°C° 0.3 mm 3 mps 760 mmHg 71%
16:00 +31°C° 0.3 mm 3 mps 759 mmHg 74%
17:00 +30°C° 0.2 mm 2 mps 760 mmHg 79%
18:00 +29°C° 0.2 mm 2 mps 761 mmHg 84%
19:00 +28°C° 0.2 mm 1 mps 762 mmHg 89%
20:00 +28°C° 0.3 mm 1 mps 762 mmHg 88%
21:00 +27°C° 0.3 mm 1 mps 762 mmHg 88%
22:00 +27°C° 0.3 mm 1 mps 763 mmHg 87%
23:00 +27°C° 0.6 mm 1 mps 763 mmHg 88%

31 July, Saturday

Time Temperature Precipitation Wind Pressure Humidity
00:00 +26°C° 0.6 mm 1 mps 762 mmHg 88%
01:00 +26°C° 0.6 mm 1 mps 762 mmHg 88%
02:00 +26°C° 0.2 mm 1 mps 762 mmHg 88%
03:00 +26°C° 0.2 mm 1 mps 762 mmHg 88%
04:00 +26°C° 0.2 mm 2 mps 762 mmHg 88%
05:00 +26°C° 0.1 mm 2 mps 762 mmHg 88%
06:00 +26°C° 0.1 mm 2 mps 762 mmHg 88%
07:00 +26°C° 0.1 mm 2 mps 763 mmHg 88%
08:00 +28°C° 0.1 mm 1 mps 763 mmHg 82%
09:00 +29°C° 0.1 mm 1 mps 763 mmHg 77%
10:00 +31°C° 0.1 mm 1 mps 763 mmHg 72%
11:00 +31°C° 0.3 mm 1 mps 762 mmHg 71%
12:00 +31°C° 0.3 mm 2 mps 761 mmHg 71%
13:00 +31°C° 0.3 mm 2 mps 761 mmHg 70%
14:00 +31°C° 0.4 mm 2 mps 761 mmHg 72%
15:00 +31°C° 0.4 mm 3 mps 760 mmHg 74%
16:00 +30°C° 0.4 mm 3 mps 760 mmHg 75%
17:00 +29°C° 0.9 mm 2 mps 761 mmHg 81%
18:00 +28°C° 0.9 mm 2 mps 762 mmHg 87%
19:00 +27°C° 0.9 mm 1 mps 762 mmHg 93%
20:00 +27°C° 0.4 mm 1 mps 763 mmHg 92%
21:00 +27°C° 0.4 mm 1 mps 763 mmHg 92%
22:00 +25°C° 0.4 mm 0 mps 763 mmHg 91%
23:00 +25°C° 0.2 mm 0 mps 763 mmHg 91%

1 August, Sunday

Time Temperature Precipitation Wind Pressure Humidity
00:00 +25°C° 0.2 mm 0 mps 763 mmHg 91%
01:00 +25°C° 0.2 mm 0 mps 762 mmHg 91%
02:00 +25°C° 0.1 mm 0 mps 762 mmHg 91%
03:00 +24°C° 0.1 mm 0 mps 762 mmHg 91%
04:00 +26°C° 0.1 mm 1 mps 762 mmHg 91%
05:00 +26°C° 0.1 mm 1 mps 762 mmHg 91%
06:00 +26°C° 0.1 mm 1 mps 762 mmHg 90%
07:00 +26°C° 0.1 mm 1 mps 763 mmHg 89%
08:00 +27°C° 0.2 mm 1 mps 763 mmHg 87%
09:00 +28°C° 0.2 mm 1 mps 763 mmHg 84%
10:00 +29°C° 0.2 mm 1 mps 763 mmHg 81%
11:00 +30°C° 0.2 mm 1 mps 762 mmHg 77%
12:00 +31°C° 0.2 mm 2 mps 761 mmHg 73%
13:00 +31°C° 0.2 mm 2 mps 761 mmHg 69%
14:00 +31°C° 0.1 mm 2 mps 760 mmHg 72%
15:00 +30°C° 0.1 mm 2 mps 760 mmHg 76%
16:00 +29°C° 0.1 mm 1 mps 760 mmHg 79%
17:00 +29°C° 0 mm 1 mps 760 mmHg 81%
18:00 +28°C° 0 mm 1 mps 761 mmHg 82%
19:00 +28°C° 0 mm 1 mps 761 mmHg 84%
20:00 +27°C° 0.1 mm 1 mps 761 mmHg 84%
21:00 +27°C° 0.1 mm 1 mps 762 mmHg 84%
22:00 +27°C° 0.1 mm 1 mps 762 mmHg 84%
23:00 +27°C° 0.2 mm 1 mps 762 mmHg 84%

2 August, Monday

Time Temperature Precipitation Wind Pressure Humidity
00:00 +27°C° 0.2 mm 1 mps 762 mmHg 84%
01:00 +27°C° 0.2 mm 1 mps 762 mmHg 84%
02:00 +27°C° 0.1 mm 1 mps 761 mmHg 84%
03:00 +26°C° 0.1 mm 1 mps 761 mmHg 84%
04:00 +26°C° 0.1 mm 1 mps 761 mmHg 84%
05:00 +27°C° 0.1 mm 1 mps 761 mmHg 84%
06:00 +27°C° 0.1 mm 1 mps 762 mmHg 84%
07:00 +27°C° 0.1 mm 1 mps 762 mmHg 84%
08:00 +28°C° 0.1 mm 1 mps 762 mmHg 81%
09:00 +29°C° 0.1 mm 1 mps 762 mmHg 77%
10:00 +30°C° 0.1 mm 1 mps 763 mmHg 74%
11:00 +30°C° 0.2 mm 1 mps 762 mmHg 73%
12:00 +31°C° 0.2 mm 1 mps 761 mmHg 72%
13:00 +31°C° 0.2 mm 1 mps 760 mmHg 71%
14:00 +31°C° 0.1 mm 2 mps 760 mmHg 72%
15:00 +31°C° 0.1 mm 2 mps 760 mmHg 73%
16:00 +31°C° 0.1 mm 2 mps 760 mmHg 74%
17:00 +30°C° 0.1 mm 2 mps 760 mmHg 79%
18:00 +29°C° 0.1 mm 1 mps 761 mmHg 84%
19:00 +27°C° 0.1 mm 1 mps 761 mmHg 89%
20:00 +27°C° 0.1 mm 1 mps 762 mmHg 89%
21:00 +27°C° 0.1 mm 1 mps 762 mmHg 89%
22:00 +27°C° 0.1 mm 1 mps 762 mmHg 88%
23:00 +27°C° 0.2 mm 1 mps 762 mmHg 88%
Show more